RH
48 40 32 22 15 15 21 22 20 21 26 45 44 39 42 53 48 51 68 68 82 85 83 82 82 83 82 78 74 72 85 88 87 84 84 78 68 67 58 76 82 72 90 93 87 82 90 94 96
41 39 27 21 14 13 19 20 22 20 28 29 36 38 40 54 53 56 57 71 82 83 87 89 76 77 81 82 79 74 72 81 88 88 88 89 77 63 56 76 85 83 88 90 91 89 93 94 91
40 28 17 19 17 14 20 20 20 21 20 20 37 40 41 49 47 50 52 63 77 76 85 90 80 80 85 84 83 80 76 73 76 80 83 94 88 80 56 56 82 82 85 87 94 85 76 77 87
34 22 22 19 23 26 22 19 20 21 21 28 32 36 41 47 46 48 46 48 53 55 72 88 90 86 87 88 86 84 82 79 76 75 76 81 91 91 80 61 61 83 85 87 89 88 70 67 84
29 18 19 24 29 27 24 23 22 19 20 25 33 35 42 44 46 45 45 44 43 44 48 68 95 93 89 87 87 85 83 82 84 82 77 76 80 82 84 82 63 67 84 87 89 90 78 62 79
20 19 16 19 27 28 24 24 22 20 20 21 34 36 41 45 43 44 43 41 41 41 42 43 48 68 85 91 91 89 87 84 82 81 81 82 80 81 84 83 83 66 71 85 88 91 85 68 71
22 17 24 22 26 29 25 25 23 21 21 22 22 30 40 42 42 42 42 41 39 41 41 40 40 35 37 44 51 70 86 91 89 85 84 82 82 79 84 86 85 84 76 71 83 88 90 84 66
25 21 26 26 26 25 27 26 26 25 22 23 23 26 34 41 34 37 36 35 33 34 33 33 33 33 35 39 33 33 34 43 53 77 90 89 86 84 84 87 87 86 85 82 73 83 87 90 84
31 19 19 27 27 26 28 29 28 26 27 24 23 29 27 27 28 29 29 30 31 31 28 26 25 28 24 28 33 30 31 31 32 34 40 54 76 84 86 89 86 87 88 88 84 77 82 90 92
27 19 27 30 29 29 29 30 29 27 25 23 25 26 28 26 26 28 27 25 29 29 32 33 29 24 21 28 28 25 24 32 34 36 39 37 42 48 45 70 88 88 89 88 88 88 82 84 85
34 26 35 36 34 32 32 31 29 29 29 22 22 25 27 26 27 28 29 28 30 35 38 44 30 27 29 31 24 35 35 35 36 36 36 37 36 41 45 54 69 66 93 98 95 96 96 85 80
34 35 35 36 33 30 32 31 29 28 25 25 25 25 25 22 24 25 27 30 37 42 44 49 47 46 44 40 46 44 40 40 36 37 38 38 38 38 35 36 46 64 78 93 97 95 97 90 83
29 33 31 29 28 29 27 29 29 28 22 23 23 24 23 22 24 27 39 44 47 45 49 55 54 57 57 54 54 51 49 48 45 43 42 42 40 37 36 37 36 43 54 67 78 97 98 98 95
31 32 29 28 28 26 26 23 29 21 23 24 24 24 24 26 26 32 42 43 47 52 55 62 62 63 63 60 62 59 57 57 55 52 48 46 44 41 40 38 37 37 39 52 63 71 79 99 99
27 25 27 29 30 27 28 21 26 18 23 22 22 21 23 27 34 36 44 52 56 57 66 67 66 67 69 68 67 66 65 64 62 60 58 58 56 50 47 44 42 39 38 38 42 54 65 71 80
24 24 20 28 31 31 26 15 17 20 23 21 22 19 20 21 28 33 45 57 63 67 67 71 72 73 72 71 71 68 68 69 67 67 67 67 67 64 60 53 47 43 41 41 40 39 45 55 65
23 24 25 22 32 33 30 22 18 19 22 22 21 19 17 17 21 28 43 57 64 67 68 68 70 68 68 67 70 71 73 73 72 72 73 74 76 74 71 63 56 50 49 46 44 42 43 43 47
30 20 22 23 23 31 33 27 19 18 20 22 21 18 16 16 18 23 41 58 66 67 68 65 60 62 62 60 59 54 58 62 68 75 80 86 84 82 79 74 67 61 56 52 51 48 45 46 45
33 38 38 26 37 48 34 32 27 23 24 24 24 23 21 18 18 27 45 56 64 65 62 59 60 55 57 50 49 47 46 51 55 58 72 78 82 86 84 79 74 67 62 59 52 45 45 47 47
45 44 32 38 44 51 38 39 27 23 23 23 24 24 24 23 24 39 47 53 60 60 60 61 59 57 57 52 54 58 58 56 56 56 56 50 62 75 84 81 78 73 67 63 60 56 51 48 47
47 48 50 62 52 48 41 22 17 17 21 25 32 38 37 33 28 37 46 51 58 59 59 61 63 61 58 54 51 50 48 46 44 43 48 51 61 61 65 81 86 79 75 69 66 62 60 55 50
76 57 60 63 72 57 48 54 26 27 26 22 22 33 39 42 43 42 47 50 54 56 61 68 68 64 57 52 47 48 49 48 46 51 57 72 76 79 80 77 79 86 76 72 70 66 66 59 56
58 63 66 80 81 87 56 78 31 19 26 24 27 34 42 44 44 44 48 53 52 60 65 70 71 67 62 52 48 49 48 48 48 52 72 78 80 80 83 87 82 90 85 75 70 71 68 63 62
60 63 63 74 76 88 58 57 41 27 30 32 27 30 38 38 38 42 48 54 53 58 66 70 71 66 63 51 47 51 51 51 57 73 78 81 82 86 88 92 89 93 90 83 76 72 70 69 66
57 94 94 90 83 50 75 69 38 28 29 36 34 33 29 34 37 40 41 46 50 54 62 67 66 62 61 46 45 50 53 58 75 76 81 83 88 92 91 91 91 92 96 90 83 78 78 77 73
88 93 78 50 57 50 73 78 53 32 31 35 34 38 40 32 34 41 41 44 47 53 59 65 64 61 59 42 44 50 52 64 77 81 87 86 91 92 93 92 92 93 96 90 84 80 78 78 80
89 93 64 89 82 75 59 55 37 33 31 36 39 36 34 35 36 41 41 43 44 46 52 63 64 60 56 42 44 46 48 64 77 85 89 90 92 92 94 98 99 94 89 86 82 78 75 73 72
77 62 87 82 58 51 41 44 81 71 64 40 44 45 39 39 43 41 41 44 50 44 51 65 69 62 54 42 43 44 48 59 77 82 87 92 94 96 99 100 100 99 99 97 84 78 74 73 72
79 83 83 79 71 68 57 68 88 90 85 63 54 48 44 42 38 40 42 44 48 42 51 62 67 64 52 39 42 46 46 52 66 79 85 93 98 98 99 100 100 98 98 99 100 97 84 79 74
64 68 56 62 70 74 72 80 45 64 51 52 46 32 31 32 35 36 38 39 42 44 51 61 68 66 53 41 42 46 48 50 50 67 80 90 98 99 99 100 99 98 99 100 100 99 94 89 85
Wind_Speed
4 2 2 1 3 1 5 4 0 5 4 3 2 2 4 5 5 4 3 7 7 6 6 6 7 7 8 7 6 6 7 6 4 3 2 2 2 3 4 3 3 4 4 5 6 3 5 6 7
4 2 1 1 2 4 5 3 6 3 4 4 2 1 1 4 4 4 3 9 7 7 7 7 6 5 6 7 7 8 8 7 6 5 4 3 2 3 5 4 4 4 5 6 7 6 6 7 7
3 4 2 1 1 3 5 5 7 3 2 3 3 2 2 4 4 3 6 8 6 8 8 8 5 1 5 6 7 8 8 8 7 7 7 8 6 3 4 6 5 5 8 8 9 6 6 7 8
2 1 2 1 6 4 3 7 4 6 3 1 1 5 4 3 1 3 6 7 7 9 10 8 6 4 1 4 5 7 8 8 9 9 8 8 8 7 5 5 6 4 6 9 11 8 7 8 10
4 0 2 3 3 3 4 2 2 5 3 3 1 4 4 4 3 3 4 6 7 8 9 10 7 5 3 2 3 5 6 7 9 10 9 10 10 10 9 7 6 7 7 9 11 10 9 10 12
2 1 2 4 4 4 4 1 2 3 2 4 3 4 4 3 2 3 4 4 5 6 8 8 9 9 7 5 3 2 3 5 8 10 10 11 11 11 11 11 9 8 10 11 12 12 11 11 13
3 1 2 3 6 6 5 2 3 2 2 2 1 3 4 6 2 3 3 3 4 6 7 8 8 7 6 7 7 6 5 5 5 7 8 10 12 12 12 12 13 12 11 11 13 14 13 12 14
2 1 4 2 6 3 3 2 0 3 2 1 2 3 3 5 3 1 1 1 3 5 6 7 8 7 7 7 6 6 6 6 6 6 8 8 11 13 14 14 14 15 14 14 14 16 16 15 14
2 2 4 5 6 2 2 4 1 2 5 2 2 2 3 1 2 2 2 2 3 5 7 8 9 9 10 8 8 9 8 8 7 6 7 8 10 12 13 12 13 14 16 17 17 17 18 17 17
2 2 3 2 2 1 1 3 2 4 6 7 6 4 1 1 2 3 4 5 5 6 7 7 9 10 11 9 11 12 13 11 10 9 9 8 9 10 12 14 16 17 19 20 20 19 19 19 17
3 2 4 3 2 3 2 3 2 4 8 8 7 7 5 4 3 3 3 5 5 6 6 8 9 11 11 11 12 10 11 11 11 12 12 12 13 12 11 11 11 13 18 20 19 19 19 19 19
3 3 2 2 2 2 3 6 5 8 4 1 1 4 6 7 6 5 4 4 4 6 8 9 11 11 11 12 10 11 11 12 12 11 13 12 12 12 13 14 14 13 12 14 21 21 19 20 21
4 3 3 3 2 3 6 9 8 13 10 7 7 6 8 8 7 6 5 5 6 7 9 10 12 12 12 12 12 12 12 13 13 14 13 13 13 14 14 15 15 16 15 15 15 17 22 23 21
3 3 2 3 4 3 7 7 5 2 2 5 6 6 6 6 6 6 7 7 7 8 8 10 11 12 13 13 14 14 14 15 15 15 15 15 15 16 16 17 17 17 18 18 18 18 17 20 24
3 2 2 4 5 2 8 10 12 9 6 8 11 10 9 10 9 10 8 8 7 7 8 9 10 10 11 12 13 14 14 15 16 17 17 16 16 17 18 18 19 19 19 20 21 21 20 21 21
1 1 3 2 6 1 5 12 1 1 5 9 10 12 13 13 14 12 10 8 7 7 7 7 7 8 9 10 11 12 13 14 15 16 16 17 17 18 19 20 21 20 20 20 20 21 23 23 23
2 3 4 4 2 4 2 13 6 3 7 12 14 16 17 17 17 16 13 10 7 6 6 6 6 8 10 11 10 11 11 11 13 14 15 15 15 15 17 19 21 21 21 21 21 22 22 24 24
2 4 3 7 3 7 15 26 20 19 20 21 21 22 21 20 19 16 14 10 7 6 5 5 7 9 11 11 12 11 10 11 12 11 12 14 14 14 15 16 18 19 22 23 22 23 23 23 23
3 2 7 8 4 10 11 25 24 22 23 24 22 22 21 20 18 14 14 10 7 7 6 6 8 9 11 11 13 12 12 15 12 13 13 13 14 15 15 15 16 16 18 21 23 24 23 24 21
1 5 7 9 2 9 15 30 27 20 20 16 16 16 17 16 12 14 13 11 9 7 7 6 7 8 9 10 11 11 16 13 16 14 14 15 15 15 16 16 16 16 16 16 18 21 23 23 20
2 4 6 6 13 2 16 16 6 4 10 13 13 11 11 12 13 11 11 10 8 8 7 6 7 8 9 10 11 12 14 14 15 15 17 15 17 18 17 17 17 17 16 15 15 16 18 20 20
2 2 6 10 10 6 10 9 9 8 15 10 11 9 5 3 4 4 5 7 8 8 6 7 7 8 8 10 11 12 14 16 16 18 18 20 18 18 18 18 17 16 16 15 14 15 16 18 19
3 4 7 2 5 4 2 4 8 11 10 12 15 5 3 1 2 4 4 6 8 7 8 8 8 8 8 9 10 12 13 15 16 17 18 19 18 17 18 17 15 15 13 14 14 15 14 17 18
5 5 2 2 0 2 3 3 7 7 9 15 12 5 5 6 3 5 6 7 9 8 8 8 8 7 8 9 10 11 14 15 17 18 19 17 18 17 16 14 13 13 12 12 13 14 15 17 17
2 3 3 2 1 3 4 5 12 17 12 9 11 10 7 7 6 4 4 5 6 7 7 7 7 7 7 9 10 11 12 13 15 16 16 17 17 15 14 12 11 13 13 12 12 14 15 15 18
2 1 1 4 4 6 4 6 4 7 14 15 10 6 7 7 7 7 8 9 10 10 8 8 8 7 7 8 9 9 10 11 13 13 14 15 17 16 15 14 13 13 14 14 13 13 14 15 16
2 1 2 1 1 4 4 7 12 2 9 13 7 8 6 5 7 9 9 9 10 11 11 10 9 8 8 8 9 9 9 10 12 11 11 13 16 17 17 16 16 16 15 14 14 15 15 16 16
2 6 1 1 4 5 5 7 5 6 11 12 12 10 9 8 9 10 11 11 12 13 13 10 9 9 8 8 8 8 9 9 10 10 12 13 15 16 18 17 15 15 15 14 15 15 15 16 17
4 3 1 1 2 3 5 6 4 5 5 9 9 8 10 11 11 11 14 19 17 17 13 12 10 10 9 8 8 9 9 10 9 8 10 11 13 14 16 14 14 15 15 15 15 16 16 17 18
2 5 6 3 4 3 2 8 3 5 7 8 11 17 17 15 15 14 17 19 21 16 12 13 12 10 8 8 8 9 9 9 9 8 8 9 10 11 12 13 13 12 13 14 13 14 14 15 16
Wind_Direction
23 20 16 279 205 172 113 124 72 137 133 54 59 300 61 35 1 28 79 22 0 353 352 347 311 234 226 223 217 210 198 198 191 175 159 145 175 194 187 168 146 165 173 179 161 178 155 147 142
44 27 356 191 227 165 109 131 148 106 104 116 117 132 122 82 58 87 148 356 359 354 359 356 344 231 229 232 234 235 221 218 211 213 215 211 208 217 218 207 197 198 199 194 182 193 182 169 161
53 41 289 37 79 103 120 163 125 102 166 195 140 12 51 87 74 64 7 359 14 15 16 12 28 328 244 247 247 247 249 240 236 231 232 233 235 240 235 225 227 248 222 205 208 213 202 185 173
354 104 111 330 101 81 82 142 126 148 125 195 149 117 123 59 80 53 16 18 28 29 26 25 37 38 289 251 253 256 256 257 256 264 262 247 246 243 250 251 243 247 214 215 217 213 210 200 185
30 250 100 95 85 98 115 117 213 181 137 128 219 123 108 109 87 57 28 26 32 32 33 33 37 45 43 10 298 268 255 257 257 265 268 270 272 264 248 247 251 242 234 225 221 221 219 209 197
80 316 177 164 142 151 153 208 237 208 157 119 172 147 124 135 127 38 23 28 24 29 33 33 36 40 40 37 14 354 304 285 269 262 259 265 266 271 260 261 260 252 243 233 229 229 227 220 211
66 360 88 138 150 171 168 173 221 198 194 127 102 190 119 167 25 5 6 6 16 25 24 21 20 25 25 39 38 25 4 323 293 281 270 265 262 261 261 258 260 260 254 243 238 235 233 231 223
59 93 136 180 185 158 126 167 326 250 188 31 282 210 170 143 342 325 291 14 22 17 2 355 354 349 352 353 346 352 347 344 343 317 292 280 271 271 268 259 254 255 258 255 246 240 238 238 235
325 188 171 168 178 115 142 207 166 299 263 221 216 276 78 43 352 301 281 286 331 333 333 330 329 330 326 326 317 314 305 310 312 307 311 318 289 282 278 271 266 259 259 260 256 250 246 243 241
344 234 115 46 35 346 166 254 280 260 221 224 205 168 136 97 322 312 303 294 315 325 335 331 327 325 322 321 313 307 303 301 302 304 305 300 294 295 291 286 272 261 259 258 259 255 252 249 241
19 76 122 82 31 340 297 262 286 264 242 240 230 200 217 288 294 273 271 282 299 313 321 329 325 322 319 315 314 313 308 304 300 297 292 293 289 286 283 284 284 280 265 262 259 252 244 241 239
120 90 78 103 25 315 281 311 270 246 263 106 246 258 266 263 258 257 256 266 288 304 310 320 319 320 318 316 314 309 305 299 296 290 292 290 285 282 279 276 276 275 273 270 261 254 249 242 239
81 110 75 31 352 308 301 262 276 264 248 250 271 246 247 255 257 252 250 253 279 292 303 314 316 319 315 315 309 305 299 297 292 293 287 284 280 278 277 274 272 269 268 268 268 263 255 249 246
60 88 56 12 359 324 316 282 319 264 143 213 213 217 226 249 252 238 242 254 268 287 300 311 315 316 312 309 304 299 294 292 291 285 282 280 277 275 275 275 273 269 265 264 263 263 262 262 250
77 201 178 29 344 316 319 264 235 256 248 255 236 237 248 249 244 250 252 257 273 287 302 312 320 320 321 316 310 303 297 293 288 284 282 279 276 273 271 270 268 266 265 264 262 263 262 258 257
61 231 279 79 350 50 331 270 245 288 251 261 253 253 248 252 252 252 245 251 265 283 299 311 320 329 332 327 321 314 308 303 296 291 287 284 283 278 274 269 265 264 263 262 261 258 258 257 257
43 287 302 298 66 316 275 289 283 236 245 263 259 255 254 256 251 249 237 235 247 265 283 295 313 324 329 327 323 319 315 318 314 304 297 294 293 290 282 275 271 268 265 260 256 255 254 257 257
323 300 281 280 21 299 284 271 275 273 271 268 263 257 251 247 246 244 222 220 237 260 271 290 309 321 328 330 327 322 321 321 319 317 309 303 300 297 292 284 278 273 266 259 254 253 253 253 256
101 291 293 298 342 312 284 288 283 279 272 264 261 261 259 251 246 226 205 211 225 243 264 292 314 326 334 334 335 325 322 321 317 314 311 310 305 299 295 287 283 279 273 270 264 258 253 252 252
14 315 314 289 323 319 309 289 293 286 272 278 280 278 274 265 232 199 195 208 222 237 261 294 314 327 331 328 322 311 313 309 309 310 307 307 305 304 295 290 284 279 278 275 268 260 259 257 253
315 314 335 304 320 284 312 287 344 305 271 282 281 283 280 267 236 188 190 212 222 243 260 288 308 320 325 323 318 314 310 307 312 313 312 310 309 304 298 290 282 279 274 269 268 259 254 260 255
301 12 305 310 340 310 12 295 332 345 320 321 320 286 281 184 185 203 211 226 243 253 262 282 298 310 317 320 318 315 310 311 313 311 311 311 312 307 302 293 286 279 273 269 266 264 260 257 256
321 311 301 313 294 325 84 276 278 314 331 349 358 323 245 220 303 296 265 265 269 267 264 269 280 297 307 317 319 315 313 312 311 311 315 315 314 314 313 302 290 282 275 271 266 263 259 254 254
312 278 274 201 223 251 139 349 289 333 335 323 320 348 263 209 219 289 286 284 283 274 268 265 274 294 307 320 324 321 316 317 315 319 318 319 320 321 319 315 309 302 287 280 277 269 261 259 260
323 302 311 294 302 295 144 269 260 300 313 317 319 303 287 268 259 251 277 305 313 301 278 270 270 292 309 319 322 321 317 319 313 314 318 319 314 315 322 320 306 299 300 289 280 278 273 267 261
24 337 5 293 300 305 152 236 259 321 312 309 271 303 302 254 245 261 281 294 299 298 280 259 260 279 288 303 313 321 318 311 307 312 313 311 310 315 319 313 307 305 303 293 281 276 273 269 265
123 195 357 77 133 275 294 277 274 303 14 16 4 297 290 270 253 268 282 284 300 298 287 266 262 267 282 302 309 312 307 303 307 309 321 310 310 315 319 319 318 315 305 296 288 279 274 271 270
255 135 180 75 314 293 279 281 253 329 341 346 0 353 332 312 298 292 286 278 299 304 290 267 262 269 280 286 292 297 301 301 309 319 324 309 307 310 315 307 311 314 310 302 293 284 279 275 272
156 189 138 21 244 279 306 270 214 247 290 307 329 346 336 322 313 301 287 280 283 302 288 270 259 262 273 282 292 298 304 302 304 314 311 309 308 308 311 315 313 317 316 317 303 288 281 276 276
211 207 195 228 188 234 308 273 273 261 296 307 311 317 317 311 305 300 296 294 288 279 270 259 252 252 262 274 282 285 292 298 300 303 306 306 308 305 308 313 313 313 315 319 320 307 296 289 285